DW9680 Weather Reports


time (UTC)temp
C
wind
direction
speed
KPH
gust
KPH
rain 1hr
cm
rain 24hr
cm
rain mn
cm
humidity
%
barometer
mb
20260505151544 11 129 0.0 0.0 0.00 0.00 0.00 92 1015.7
20260505124523 9 132 0.0 0.0 0.00 0.00 0.00 92 1014.8
20260505123021 9 132 0.0 0.0 0.00 0.00 0.00 91 1014.8
20260505121520 9 132 0.0 0.0 0.00 0.00 0.00 91 1014.8
20260505120034 9 132 0.0 0.0 0.00 0.00 0.00 92 1014.8
20260505114519 9 132 0.0 0.0 0.00 0.00 0.00 92 1014.7
20260505113017 9 132 0.0 0.0 0.00 0.00 0.00 91 1014.6
20260505111525 9 132 0.0 0.0 0.00 0.00 0.00 91 1014.6
20260505101512 9 132 0.0 0.0 0.00 0.00 0.00 91 1014.1
20260505100011 9 132 0.0 0.0 0.00 0.00 0.00 91 1014.1
20260505094510 9 132 0.0 0.0 0.00 0.00 0.00 91 1014.0
20260505093008 9 132 0.0 0.0 0.00 0.00 0.00 91 1014.0
20260505091510 9 132 0.0 0.0 0.00 0.00 0.00 91 1013.9
20260505090004 10 132 0.0 0.0 0.00 0.00 0.00 90 1013.7
20260505084503 10 132 0.0 0.0 0.00 0.00 0.00 90 1013.6
20260505083001 10 132 0.0 0.0 0.00 0.00 0.00 90 1013.6
20260505081605 10 132 0.0 0.0 0.00 0.00 0.00 90 1013.5
20260505080105 10 132 0.0 0.0 0.00 0.00 0.00 89 1013.4
20260505074555 10 132 0.0 0.0 0.00 0.00 0.00 89 1013.1
20260505073059 10 132 0.0 0.0 0.00 0.00 0.00 89 1013.1
20260505071607 11 132 0.0 0.0 0.00 0.00 0.00 88 1013.0
20260505070052 11 132 0.0 0.0 0.00 0.00 0.00 88 1012.7
20260505064548 11 132 0.0 0.0 0.00 0.00 0.00 88 1012.5
20260505063052 11 132 0.0 0.0 0.00 0.00 0.00 87 1012.4
20260505061555 12 132 0.0 0.0 0.00 0.00 0.00 86 1012.4
20260505060058 12 132 0.0 0.0 0.00 0.00 0.00 86 1012.2
20260505054547 12 132 0.0 0.0 0.00 0.00 0.00 85 1012.1
20260505053046 13 132 0.0 0.0 0.00 0.00 0.00 84 1012.1
20260505051548 13 132 0.0 0.0 0.00 0.00 0.00 84 1011.9
20260505041553 15 132 0.0 0.0 0.00 0.00 0.00 79 1011.1
20260505040047 16 132 0.0 0.0 0.00 0.00 0.00 78 1011.0
20260505034543 16 132 0.0 0.0 0.00 0.00 0.00 76 1010.7
20260505033045 17 132 0.0 0.0 0.00 0.00 0.00 74 1010.4
20260505031542 18 132 0.0 0.0 0.00 0.00 0.00 71 1010.2
20260505030054 19 132 0.0 0.0 0.00 0.00 0.00 69 1009.9
20260505024547 20 132 0.0 0.0 0.00 0.00 0.00 67 1009.8
20260505023040 21 132 0.0 0.0 0.00 0.00 0.00 62 1009.6
20260505021541 22 132 0.0 0.0 0.00 0.00 0.00 61 1009.5
20260505020042 22 132 0.0 0.0 0.00 0.00 0.00 61 1009.3
20260505014600 22 131 0.0 0.0 0.00 0.00 0.00 61 1009.3
20260505013048 23 127 0.0 0.0 0.00 0.00 0.00 60 1009.5
20260505011542 23 110 0.0 8.0 0.00 0.00 0.00 59 1009.5
20260505010050 23 262 0.0 1.6 0.00 0.00 0.00 60 1009.6
20260505004547 23 252 0.0 6.4 0.00 0.00 0.00 61 1009.7
20260505003051 23 61 0.0 1.6 0.00 0.00 0.00 62 1009.8
20260505001533 23 190 3.2 11.3 0.00 0.00 0.00 62 1009.8
20260505000035 23 133 0.0 9.7 0.00 0.00 0.00 62 1010.0
20260504234530 22 119 0.0 14.5 0.00 0.00 0.00 63 1010.1
20260504233034 23 81 0.0 11.3 0.00 0.00 0.00 62 1010.3
20260504231526 23 105 0.0 6.4 0.00 0.00 0.00 66 1010.3
20260504230023 22 142 0.0 9.7 0.00 0.00 0.00 64 1010.5
20260504224523 22 88 3.2 9.7 0.00 0.00 0.00 65 1010.6
20260504223022 22 92 0.0 4.8 0.00 0.00 0.00 66 1010.9
20260504221520 22 266 4.8 11.3 0.00 0.00 0.00 66 1011.0
20260504220016 21 93 0.0 12.9 0.00 0.00 0.00 68 1011.2
20260504214517 21 100 0.0 11.3 0.00 0.00 0.00 69 1011.3
20260504213022 21 73 0.0 9.7 0.00 0.00 0.00 69 1011.4
20260504211528 21 90 0.0 8.0 0.00 0.00 0.00 70 1011.7
20260504210008 20 96 0.0 8.0 0.00 0.00 0.00 70 1012.1
20260504204505 20 88 3.2 9.7 0.00 0.00 0.00 71 1012.2
20260504203003 19 46 3.2 9.7 0.00 0.00 0.00 71 1012.4
20260504201612 18 81 1.6 8.0 0.00 0.00 0.00 73 1012.5
20260504200057 18 74 1.6 11.3 0.00 0.00 0.00 73 1012.7
20260504194559 18 62 4.8 9.7 0.00 0.00 0.00 74 1012.7
20260504193105 17 60 3.2 8.0 0.00 0.00 0.00 75 1012.8
20260504191606 17 102 3.2 11.3 0.00 0.00 0.00 77 1012.9
20260504190104 17 89 4.8 11.3 0.00 0.00 0.00 76 1013.1
20260504184551 16 82 4.8 11.3 0.00 0.00 0.00 79 1013.1
20260504183046 16 75 1.6 6.4 0.00 0.00 0.00 80 1013.2
20260504181547 15 75 0.0 4.8 0.00 0.00 0.00 82 1013.3
20260504180042 15 75 0.0 6.4 0.00 0.00 0.00 82 1013.3
20260504174543 14 75 1.6 6.4 0.00 0.00 0.00 84 1013.3
20260504173037 13 75 0.0 4.8 0.00 0.00 0.00 85 1013.3
20260504171539 13 74 0.0 3.2 0.00 0.00 0.00 85 1013.2